Time,TemperatureF,DewpointF,PressureIn,WindDirection,WindDirectionDegrees,WindSpeedMPH,WindSpeedGustMPH,Humidity,HourlyPrecipIn,Conditions,Clouds,dailyrainin,SoftwareType,DateUTC
2013-08-05 00:09:00,82.5,70.0,29.93,SE,134,3.0,8.0,67,0.00,,,0.00,weatherlink.com 1.10,2013-08-05 05:09:00,
2013-08-05 00:24:00,82.7,70.0,29.93,SSE,150,3.0,5.0,65,0.00,,,0.00,weatherlink.com 1.10,2013-08-05 05:24:00,
2013-08-05 00:39:00,82.7,70.0,29.93,South,176,1.0,8.0,65,0.00,,,0.00,weatherlink.com 1.10,2013-08-05 05:39:00,
2013-08-05 00:54:00,82.2,70.0,29.93,South,181,1.0,5.0,66,0.00,,,0.00,weatherlink.com 1.10,2013-08-05 05:54:00,
2013-08-05 01:09:00,81.5,70.0,29.92,SE,141,1.0,4.0,67,0.00,,,0.00,weatherlink.com 1.10,2013-08-05 06:09:00,
2013-08-05 01:24:00,80.8,70.0,29.92,SE,135,2.0,4.0,69,0.00,,,0.00,weatherlink.com 1.10,2013-08-05 06:24:00,
2013-08-05 01:39:00,80.4,70.0,29.93,SE,136,1.0,3.0,70,0.00,,,0.00,weatherlink.com 1.10,2013-08-05 06:39:00,
2013-08-05 01:54:00,79.4,69.0,29.92,SE,138,0.0,0.0,71,0.00,,,0.00,weatherlink.com 1.10,2013-08-05 06:54:00,
2013-08-05 02:09:00,77.7,70.0,29.92,SE,139,0.0,0.0,76,0.00,,,0.00,weatherlink.com 1.10,2013-08-05 07:09:00,
2013-08-05 02:24:00,76.7,69.0,29.91,SE,139,0.0,0.0,78,0.00,,,0.00,weatherlink.com 1.10,2013-08-05 07:24:00,
2013-08-05 02:39:00,75.6,69.0,29.91,SE,138,0.0,0.0,80,0.00,,,0.00,weatherlink.com 1.10,2013-08-05 07:39:00,
2013-08-05 02:55:00,74.9,69.0,29.91,SE,139,0.0,0.0,82,0.00,,,0.00,weatherlink.com 1.10,2013-08-05 07:55:00,
2013-08-05 03:09:00,75.5,69.0,29.91,SSE,162,0.0,1.0,81,0.00,,,0.00,weatherlink.com 1.10,2013-08-05 08:09:00,
2013-08-05 03:25:00,76.6,70.0,29.91,SSE,159,1.0,3.0,79,0.00,,,0.00,weatherlink.com 1.10,2013-08-05 08:25:00,
2013-08-05 03:40:00,77.4,70.0,29.91,South,175,1.0,4.0,77,0.00,,,0.00,weatherlink.com 1.10,2013-08-05 08:40:00,
2013-08-05 03:55:00,77.7,70.0,29.91,SW,229,0.0,3.0,76,0.00,,,0.00,weatherlink.com 1.10,2013-08-05 08:55:00,
2013-08-05 04:25:00,78.1,70.0,29.92,SSE,152,2.0,4.0,76,0.00,,,0.00,weatherlink.com 1.10,2013-08-05 09:25:00,
2013-08-05 04:39:00,78.0,70.0,29.91,SSE,150,2.0,3.0,77,0.00,,,0.00,weatherlink.com 1.10,2013-08-05 09:39:00,
2013-08-05 05:09:00,77.3,70.0,29.92,SE,136,1.0,2.0,79,0.00,,,0.00,weatherlink.com 1.10,2013-08-05 10:09:00,
2013-08-05 05:25:00,76.8,70.0,29.92,SSE,153,0.0,1.0,80,0.00,,,0.00,weatherlink.com 1.10,2013-08-05 10:25:00,
2013-08-05 05:39:00,76.8,70.0,29.91,SW,224,0.0,4.0,80,0.00,,,0.00,weatherlink.com 1.10,2013-08-05 10:39:00,
2013-08-05 06:09:00,-999.0,-99.9,29.91,North,-999,-999.0,-999.0,-999,0.00,,,0.00,weatherlink.com 1.10,2013-08-05 11:09:00,
2013-08-05 06:24:00,-999.0,-99.9,29.92,North,-999,-999.0,-999.0,-999,0.00,,,0.00,weatherlink.com 1.10,2013-08-05 11:24:00,
2013-08-05 07:10:00,-999.0,-99.9,29.93,North,-999,-999.0,-999.0,-999,0.00,,,0.00,weatherlink.com 1.10,2013-08-05 12:10:00,
2013-08-05 07:40:00,77.4,71.0,29.93,SSE,165,0.0,2.0,80,0.00,,,0.00,weatherlink.com 1.10,2013-08-05 12:40:00,
2013-08-05 07:55:00,79.3,72.0,29.93,SSW,208,1.0,3.0,77,0.00,,,0.00,weatherlink.com 1.10,2013-08-05 12:55:00,
2013-08-05 08:10:00,80.3,72.0,29.93,SSE,150,0.0,3.0,75,0.00,,,0.00,weatherlink.com 1.10,2013-08-05 13:10:00,
2013-08-05 08:25:00,81.5,72.0,29.93,SSW,204,2.0,4.0,73,0.00,,,0.00,weatherlink.com 1.10,2013-08-05 13:25:00,
2013-08-05 08:40:00,82.5,73.0,29.93,SW,219,2.0,8.0,72,0.00,,,0.00,weatherlink.com 1.10,2013-08-05 13:40:00,
2013-08-05 08:55:00,83.9,74.0,29.93,ESE,121,4.0,7.0,71,0.00,,,0.00,weatherlink.com 1.10,2013-08-05 13:55:00,
2013-08-05 09:25:00,86.6,73.0,29.93,SW,218,4.0,10.0,65,0.00,,,0.00,weatherlink.com 1.10,2013-08-05 14:25:00,
2013-08-05 09:40:00,87.7,74.0,29.93,SSW,201,6.0,8.0,64,0.00,,,0.00,weatherlink.com 1.10,2013-08-05 14:40:00,
2013-08-05 10:10:00,89.3,74.0,29.93,SSW,208,3.0,11.0,61,0.00,,,0.00,weatherlink.com 1.10,2013-08-05 15:10:00,
2013-08-05 10:25:00,89.5,74.0,29.93,South,187,7.0,11.0,60,0.00,,,0.00,weatherlink.com 1.10,2013-08-05 15:25:00,
2013-08-05 10:40:00,90.9,74.0,29.92,SW,219,4.0,15.0,58,0.00,,,0.00,weatherlink.com 1.10,2013-08-05 15:40:00,
2013-08-05 10:55:00,91.7,75.0,29.92,South,175,4.0,9.0,58,0.00,,,0.00,weatherlink.com 1.10,2013-08-05 15:55:00,
2013-08-05 11:10:00,92.0,75.0,29.92,SE,124,7.0,10.0,57,0.00,,,0.00,weatherlink.com 1.10,2013-08-05 16:10:00,
2013-08-05 11:25:00,93.2,75.0,29.92,SSW,212,4.0,9.0,55,0.00,,,0.00,weatherlink.com 1.10,2013-08-05 16:25:00,
2013-08-05 11:55:00,93.8,75.0,29.91,SSW,211,4.0,11.0,54,0.00,,,0.00,weatherlink.com 1.10,2013-08-05 16:55:00,
2013-08-05 12:25:00,95.4,74.0,29.91,WNW,284,3.0,12.0,50,0.00,,,0.00,weatherlink.com 1.10,2013-08-05 17:25:00,
2013-08-05 12:40:00,96.1,76.0,29.90,SE,135,1.0,10.0,52,0.00,,,0.00,weatherlink.com 1.10,2013-08-05 17:40:00,
2013-08-05 12:55:00,96.7,75.0,29.89,SW,222,6.0,8.0,49,0.00,,,0.00,weatherlink.com 1.10,2013-08-05 17:55:00,
2013-08-05 13:10:00,96.8,75.0,29.89,SW,215,1.0,10.0,49,0.00,,,0.00,weatherlink.com 1.10,2013-08-05 18:10:00,
2013-08-05 13:25:00,97.4,73.0,29.88,NW,309,2.0,8.0,46,0.00,,,0.00,weatherlink.com 1.10,2013-08-05 18:25:00,
2013-08-05 13:41:00,96.3,73.0,29.88,West,275,2.0,8.0,47,0.00,,,0.00,weatherlink.com 1.10,2013-08-05 18:41:00,
2013-08-05 13:55:00,98.1,74.0,29.87,SSW,208,6.0,9.0,46,0.00,,,0.00,weatherlink.com 1.10,2013-08-05 18:55:00,
2013-08-05 14:10:00,98.7,73.0,29.87,WSW,238,3.0,12.0,44,0.00,,,0.00,weatherlink.com 1.10,2013-08-05 19:10:00,
2013-08-05 14:25:00,98.5,72.0,29.86,South,180,2.0,11.0,43,0.00,,,0.00,weatherlink.com 1.10,2013-08-05 19:25:00,
2013-08-05 14:40:00,99.1,72.0,29.86,South,179,3.0,6.0,42,0.00,,,0.00,weatherlink.com 1.10,2013-08-05 19:40:00,
2013-08-05 14:56:00,99.7,73.0,29.85,West,280,5.0,5.0,43,0.00,,,0.00,weatherlink.com 1.10,2013-08-05 19:56:00,
2013-08-05 15:11:00,100.0,72.0,29.85,WSW,254,3.0,8.0,41,0.00,,,0.00,weatherlink.com 1.10,2013-08-05 20:11:00,
2013-08-05 15:41:00,100.5,71.0,29.84,SSW,200,5.0,5.0,39,0.00,,,0.00,weatherlink.com 1.10,2013-08-05 20:41:00,
2013-08-05 15:56:00,101.2,71.0,29.83,SSW,212,7.0,9.0,38,0.00,,,0.00,weatherlink.com 1.10,2013-08-05 20:56:00,
2013-08-05 16:11:00,101.5,71.0,29.83,SW,226,3.0,8.0,38,0.00,,,0.00,weatherlink.com 1.10,2013-08-05 21:11:00,
2013-08-05 16:26:00,102.5,72.0,29.82,South,187,2.0,6.0,37,0.00,,,0.00,weatherlink.com 1.10,2013-08-05 21:26:00,
2013-08-05 16:41:00,101.6,70.0,29.82,SE,131,2.0,8.0,36,0.00,,,0.00,weatherlink.com 1.10,2013-08-05 21:41:00,
2013-08-05 16:56:00,101.9,71.0,29.82,SSE,158,2.0,4.0,37,0.00,,,0.00,weatherlink.com 1.10,2013-08-05 21:56:00,
2013-08-05 17:26:00,100.9,72.0,29.80,SSE,165,1.0,5.0,40,0.00,,,0.00,weatherlink.com 1.10,2013-08-05 22:26:00,
2013-08-05 17:41:00,100.6,73.0,29.80,SE,139,4.0,6.0,41,0.00,,,0.00,weatherlink.com 1.10,2013-08-05 22:41:00,
2013-08-05 17:56:00,101.0,71.0,29.79,South,169,1.0,6.0,38,0.00,,,0.00,weatherlink.com 1.10,2013-08-05 22:56:00,
2013-08-05 18:41:00,99.2,72.0,29.78,SSE,150,3.0,5.0,41,0.00,,,0.00,weatherlink.com 1.10,2013-08-05 23:41:00,
2013-08-05 18:56:00,99.3,73.0,29.78,SE,141,1.0,3.0,43,0.00,,,0.00,weatherlink.com 1.10,2013-08-05 23:56:00,
2013-08-05 19:11:00,97.8,71.0,29.77,SE,136,3.0,6.0,42,0.00,,,0.00,weatherlink.com 1.10,2013-08-06 00:11:00,
2013-08-05 20:41:00,89.1,70.0,29.78,SSE,150,0.0,1.0,53,0.00,,,0.00,weatherlink.com 1.10,2013-08-06 01:41:00,
2013-08-05 20:56:00,88.1,70.0,29.79,SE,144,0.0,3.0,55,0.00,,,0.00,weatherlink.com 1.10,2013-08-06 01:56:00,
2013-08-05 21:11:00,87.5,70.0,29.79,SSE,158,0.0,2.0,56,0.00,,,0.00,weatherlink.com 1.10,2013-08-06 02:11:00,
2013-08-05 21:41:00,87.2,69.0,29.80,SE,144,1.0,4.0,55,0.00,,,0.00,weatherlink.com 1.10,2013-08-06 02:41:00,
2013-08-05 21:56:00,87.4,68.0,29.80,ESE,110,2.0,4.0,53,0.00,,,0.00,weatherlink.com 1.10,2013-08-06 02:56:00,
2013-08-05 22:26:00,87.8,67.0,29.81,SE,139,1.0,7.0,51,0.00,,,0.00,weatherlink.com 1.10,2013-08-06 03:26:00,
2013-08-05 22:41:00,87.5,68.0,29.81,SSE,152,4.0,7.0,52,0.00,,,0.00,weatherlink.com 1.10,2013-08-06 03:41:00,
2013-08-05 23:11:00,86.3,68.0,29.83,SE,133,1.0,4.0,54,0.00,,,0.00,weatherlink.com 1.10,2013-08-06 04:11:00,
2013-08-05 23:26:00,85.1,68.0,29.84,SE,135,0.0,1.0,57,0.00,,,0.00,weatherlink.com 1.10,2013-08-06 04:26:00,
2013-08-05 23:41:00,83.8,68.0,29.83,SE,144,0.0,2.0,59,0.00,,,0.00,weatherlink.com 1.10,2013-08-06 04:41:00,
2013-08-05 23:56:00,83.7,68.0,29.84,SSE,165,0.0,2.0,59,0.00,,,0.00,weatherlink.com 1.10,2013-08-06 04:56:00,